TimeCDT,TemperatureF,Dew PointF,Humidity,Sea Level PressureIn,VisibilityMPH,Wind Direction,Wind SpeedMPH,Gust SpeedMPH,PrecipitationIn,Events,Conditions,WindDirDegrees,DateUTC
12:56 AM,44.1,36.0,73,29.99,10.0,WSW,9.2,-,N/A,,Overcast,250,2013-04-25 05:56:00
1:03 AM,42.8,35.6,76,29.99,10.0,WSW,10.4,-,N/A,,Overcast,240,2013-04-25 06:03:00
1:56 AM,43.0,35.1,74,29.99,10.0,West,13.8,-,N/A,,Overcast,280,2013-04-25 06:56:00
2:03 AM,42.8,35.6,76,29.99,10.0,WNW,12.7,-,N/A,,Overcast,290,2013-04-25 07:03:00
2:56 AM,41.0,32.0,70,30.00,10.0,West,11.5,-,N/A,,Overcast,280,2013-04-25 07:56:00
3:43 AM,41.0,32.0,70,30.02,10.0,West,13.8,-,N/A,,Overcast,280,2013-04-25 08:43:00
3:56 AM,41.0,32.0,70,30.02,10.0,West,11.5,-,N/A,,Overcast,280,2013-04-25 08:56:00
4:52 AM,39.2,32.0,75,30.04,10.0,West,11.5,-,N/A,,Overcast,280,2013-04-25 09:52:00
4:56 AM,39.9,32.0,73,30.04,10.0,West,10.4,-,N/A,,Overcast,270,2013-04-25 09:56:00
5:29 AM,39.2,32.0,75,30.06,10.0,West,8.1,-,N/A,,Overcast,270,2013-04-25 10:29:00
5:56 AM,39.0,32.0,76,30.06,10.0,West,9.2,-,N/A,,Overcast,280,2013-04-25 10:56:00
6:31 AM,37.4,33.8,87,30.08,10.0,West,8.1,-,N/A,,Overcast,270,2013-04-25 11:31:00
6:40 AM,37.4,33.8,87,30.09,10.0,West,9.2,-,N/A,,Overcast,270,2013-04-25 11:40:00
6:56 AM,37.9,34.0,86,30.09,8.0,West,6.9,-,0.00,Rain,Light Rain,260,2013-04-25 11:56:00
7:22 AM,37.4,33.8,87,30.11,10.0,West,8.1,-,0.00,,Overcast,270,2013-04-25 12:22:00
7:56 AM,37.9,33.1,83,30.14,10.0,West,11.5,-,0.00,,Overcast,280,2013-04-25 12:56:00
8:32 AM,39.2,32.0,75,30.16,10.0,West,13.8,-,N/A,,Overcast,280,2013-04-25 13:32:00
8:56 AM,39.0,30.9,73,30.17,10.0,West,12.7,20.7,N/A,,Overcast,280,2013-04-25 13:56:00
9:33 AM,42.8,30.2,61,30.18,10.0,WNW,15.0,20.7,N/A,,Mostly Cloudy,290,2013-04-25 14:33:00
9:56 AM,42.1,30.0,62,30.19,10.0,West,13.8,20.7,N/A,,Partly Cloudy,280,2013-04-25 14:56:00
10:13 AM,42.8,28.4,57,30.20,10.0,WNW,13.8,20.7,N/A,,Mostly Cloudy,290,2013-04-25 15:13:00
10:31 AM,44.6,28.4,53,30.20,10.0,WNW,13.8,-,N/A,,Overcast,300,2013-04-25 15:31:00
10:56 AM,43.0,28.9,58,30.21,10.0,West,17.3,21.9,N/A,,Overcast,270,2013-04-25 15:56:00
11:56 AM,44.1,28.9,55,30.23,10.0,West,10.4,-,N/A,,Overcast,270,2013-04-25 16:56:00
12:56 PM,45.0,28.9,53,30.24,10.0,WNW,10.4,-,N/A,,Mostly Cloudy,290,2013-04-25 17:56:00
1:56 PM,48.0,28.0,46,30.25,10.0,West,9.2,-,N/A,,Overcast,260,2013-04-25 18:56:00
2:56 PM,48.9,28.0,44,30.24,10.0,SW,8.1,-,N/A,,Partly Cloudy,230,2013-04-25 19:56:00
3:56 PM,48.9,27.0,43,30.23,10.0,Variable,3.5,-,N/A,,Clear,0,2013-04-25 20:56:00
4:56 PM,51.1,27.0,39,30.23,10.0,West,6.9,-,N/A,,Clear,260,2013-04-25 21:56:00
5:56 PM,51.1,25.0,36,30.23,10.0,WSW,9.2,-,N/A,,Scattered Clouds,240,2013-04-25 22:56:00
6:56 PM,51.1,24.1,35,30.22,10.0,SW,6.9,-,N/A,,Clear,230,2013-04-25 23:56:00
7:56 PM,48.0,24.1,39,30.22,10.0,SSW,4.6,-,N/A,,Clear,210,2013-04-26 00:56:00
8:56 PM,39.9,28.0,63,30.23,10.0,East,3.5,-,N/A,,Clear,80,2013-04-26 01:56:00
9:56 PM,39.9,28.0,63,30.26,10.0,Calm,Calm,-,N/A,,Clear,0,2013-04-26 02:56:00
10:56 PM,37.0,28.0,70,30.27,10.0,ENE,4.6,-,N/A,,Clear,70,2013-04-26 03:56:00
11:56 PM,36.0,30.0,79,30.26,10.0,Calm,Calm,-,N/A,,Clear,0,2013-04-26 04:56:00